| time (UTC) | temp C | wind direction | speed KPH | gust KPH | rain 1hr cm | rain 24hr cm | rain mn cm | humidity % | barometer mb |
| 20260906055255 | 28 | 229 | 6.4 | 12.9 | 0.00 | 0.00 | 0.00 | 73 | 1010.3 |
| 20260906054235 | 28 | 176 | 3.2 | 12.9 | 0.00 | 0.00 | 0.00 | 72 | 1010.2 |
| 20260906052103 | 28 | 181 | 6.4 | 20.9 | 0.00 | 0.00 | 0.00 | 71 | 1010.1 |
| 20260906045859 | 29 | 159 | 8.0 | 19.3 | 0.00 | 0.00 | 0.00 | 69 | 1010.2 |
| 20260906044919 | 29 | 190 | 6.4 | 16.1 | 0.00 | 0.00 | 0.00 | 68 | 1010.3 |
| 20260906042749 | 29 | 200 | 6.4 | 17.7 | 0.00 | 0.00 | 0.00 | 67 | 1010.4 |
| 20260906041742 | 29 | 176 | 4.8 | 12.9 | 0.00 | 0.00 | 0.00 | 67 | 1010.4 |
| 20260906040750 | 30 | 171 | 3.2 | 12.9 | 0.00 | 0.00 | 0.00 | 67 | 1010.4 |
| 20260906034641 | 30 | 231 | 8.0 | 16.1 | 0.00 | 0.00 | 0.00 | 66 | 1010.3 |
| 20260906033659 | 30 | 177 | 4.8 | 17.7 | 0.00 | 0.00 | 0.00 | 65 | 1010.2 |
| 20260906032645 | 30 | 123 | 6.4 | 17.7 | 0.00 | 0.00 | 0.00 | 64 | 1010.2 |
| 20260906031647 | 30 | 140 | 8.0 | 17.7 | 0.00 | 0.00 | 0.00 | 62 | 1010.0 |
| 20260906030619 | 31 | 157 | 8.0 | 17.7 | 0.00 | 0.00 | 0.00 | 61 | 1009.7 |
| 20260906025544 | 31 | 163 | 6.4 | 17.7 | 0.00 | 0.00 | 0.00 | 58 | 1009.5 |
| 20260906024553 | 31 | 90 | 4.8 | 17.7 | 0.00 | 0.00 | 0.00 | 58 | 1009.3 |
| 20260906023549 | 31 | 132 | 4.8 | 11.3 | 0.00 | 0.00 | 0.00 | 57 | 1009.1 |
| 20260906022543 | 31 | 109 | 4.8 | 16.1 | 0.00 | 0.00 | 0.00 | 56 | 1008.7 |
| 20260906021514 | 32 | 134 | 3.2 | 11.3 | 0.00 | 0.00 | 0.00 | 55 | 1008.6 |
| 20260906015359 | 32 | 148 | 4.8 | 16.1 | 0.00 | 0.00 | 0.00 | 53 | 1008.3 |
| 20260906014420 | 32 | 148 | 3.2 | 12.9 | 0.00 | 0.00 | 0.00 | 52 | 1008.3 |
| 20260906013433 | 33 | 102 | 4.8 | 12.9 | 0.00 | 0.00 | 0.00 | 51 | 1008.2 |
| 20260906012445 | 33 | 117 | 4.8 | 14.5 | 0.00 | 0.00 | 0.00 | 49 | 1008.2 |
| 20260906011430 | 33 | 144 | 4.8 | 17.7 | 0.00 | 0.00 | 0.00 | 49 | 1008.1 |
| 20260906010424 | 34 | 109 | 4.8 | 17.7 | 0.00 | 0.00 | 0.00 | 47 | 1008.0 |
| 20260906005406 | 34 | 55 | 3.2 | 14.5 | 0.00 | 0.00 | 0.00 | 46 | 1008.0 |
| 20260906004341 | 35 | 194 | 4.8 | 12.9 | 0.00 | 0.00 | 0.00 | 42 | 1007.8 |
| 20260906003331 | 35 | 123 | 3.2 | 9.7 | 0.00 | 0.00 | 0.00 | 40 | 1007.8 |
| 20260906002311 | 35 | 159 | 3.2 | 9.7 | 0.00 | 0.00 | 0.00 | 40 | 1007.6 |
| 20260906001242 | 35 | 159 | 3.2 | 8.0 | 0.00 | 0.00 | 0.00 | 39 | 1007.6 |
| 20260906000256 | 35 | 83 | 4.8 | 11.3 | 0.00 | 0.00 | 0.00 | 39 | 1007.6 |
| 20260905234117 | 36 | 161 | 3.2 | 11.3 | 0.00 | 0.00 | 0.00 | 39 | 1007.6 |
| 20260905233129 | 36 | 149 | 4.8 | 11.3 | 0.00 | 0.00 | 0.00 | 38 | 1007.6 |
| 20260905230935 | 37 | 93 | 3.2 | 12.9 | 0.00 | 0.00 | 0.00 | 37 | 1007.7 |
| 20260905225932 | 37 | 109 | 1.6 | 9.7 | 0.00 | 0.00 | 0.00 | 37 | 1007.7 |
| 20260905224941 | 37 | 67 | 3.2 | 12.9 | 0.00 | 0.00 | 0.00 | 37 | 1007.6 |
| 20260905223909 | 37 | 100 | 4.8 | 14.5 | 0.00 | 0.00 | 0.00 | 37 | 1007.6 |
| 20260905222836 | 37 | 81 | 3.2 | 14.5 | 0.00 | 0.00 | 0.00 | 37 | 1007.7 |
| 20260905221828 | 37 | 92 | 4.8 | 14.5 | 0.00 | 0.00 | 0.00 | 38 | 1007.8 |
| 20260905220755 | 37 | 77 | 4.8 | 14.5 | 0.00 | 0.00 | 0.00 | 37 | 1007.9 |
| 20260905215815 | 37 | 108 | 3.2 | 14.5 | 0.00 | 0.00 | 0.00 | 37 | 1007.9 |
| 20260905214807 | 37 | 194 | 1.6 | 14.5 | 0.00 | 0.00 | 0.00 | 39 | 1007.9 |
| 20260905213752 | 37 | 158 | 4.8 | 12.9 | 0.00 | 0.00 | 0.00 | 38 | 1008.0 |
| 20260905212749 | 37 | 80 | 3.2 | 9.7 | 0.00 | 0.00 | 0.00 | 37 | 1007.9 |
| 20260905211808 | 38 | 200 | 3.2 | 9.7 | 0.00 | 0.00 | 0.00 | 37 | 1007.9 |
| 20260905210750 | 37 | 197 | 4.8 | 17.7 | 0.00 | 0.00 | 0.00 | 35 | 1008.0 |
| 20260905205719 | 38 | 138 | 6.4 | 17.7 | 0.00 | 0.00 | 0.00 | 36 | 1008.2 |
| 20260905204721 | 38 | 150 | 3.2 | 11.3 | 0.00 | 0.00 | 0.00 | 37 | 1008.4 |
| 20260905202619 | 37 | 168 | 4.8 | 16.1 | 0.00 | 0.00 | 0.00 | 39 | 1008.8 |
| 20260905201637 | 37 | 223 | 1.6 | 9.7 | 0.00 | 0.00 | 0.00 | 40 | 1009.0 |
| 20260905195457 | 37 | 217 | 4.8 | 12.9 | 0.00 | 0.00 | 0.00 | 40 | 1009.4 |
| 20260905194456 | 36 | 138 | 4.8 | 16.1 | 0.00 | 0.00 | 0.00 | 39 | 1009.6 |
| 20260905193458 | 36 | 143 | 3.2 | 16.1 | 0.00 | 0.00 | 0.00 | 39 | 1009.7 |
| 20260905192501 | 36 | 253 | 3.2 | 11.3 | 0.00 | 0.00 | 0.00 | 43 | 1009.9 |
| 20260905190314 | 36 | 174 | 4.8 | 14.5 | 0.00 | 0.00 | 0.00 | 42 | 1010.1 |
| 20260905185253 | 35 | 99 | 4.8 | 19.3 | 0.00 | 0.00 | 0.00 | 44 | 1010.3 |
| 20260905184224 | 35 | 181 | 4.8 | 19.3 | 0.00 | 0.00 | 0.00 | 44 | 1010.5 |
| 20260905183222 | 35 | 205 | 4.8 | 16.1 | 0.00 | 0.00 | 0.00 | 43 | 1010.8 |
| 20260905182203 | 35 | 286 | 4.8 | 14.5 | 0.00 | 0.00 | 0.00 | 45 | 1010.9 |
| 20260905181138 | 35 | 167 | 3.2 | 20.9 | 0.00 | 0.00 | 0.00 | 47 | 1011.2 |
| 20260905180143 | 35 | 198 | 6.4 | 20.9 | 0.00 | 0.00 | 0.00 | 46 | 1011.3 |
| 20260905175201 | 35 | 202 | 4.8 | 19.3 | 0.00 | 0.00 | 0.00 | 48 | 1011.5 |
| 20260905173106 | 33 | 134 | 3.2 | 17.7 | 0.00 | 0.00 | 0.00 | 52 | 1011.7 |
| 20260905172055 | 33 | 211 | 4.8 | 14.5 | 0.00 | 0.00 | 0.00 | 53 | 1011.9 |
| 20260905171100 | 33 | 159 | 4.8 | 14.5 | 0.00 | 0.00 | 0.00 | 50 | 1011.9 |
| 20260905170033 | 33 | 97 | 4.8 | 17.7 | 0.00 | 0.00 | 0.00 | 52 | 1012.0 |
| 20260905163916 | 32 | 221 | 3.2 | 16.1 | 0.00 | 0.00 | 0.00 | 55 | 1012.1 |
| 20260905162906 | 32 | 212 | 4.8 | 12.9 | 0.00 | 0.00 | 0.00 | 59 | 1012.2 |
| 20260905161858 | 32 | 153 | 1.6 | 9.7 | 0.00 | 0.00 | 0.00 | 58 | 1012.2 |
| 20260905160913 | 31 | 205 | 1.6 | 11.3 | 0.00 | 0.00 | 0.00 | 64 | 1012.2 |
| 20260905155915 | 31 | 250 | 1.6 | 11.3 | 0.00 | 0.00 | 0.00 | 65 | 1012.2 |
| 20260905154842 | 31 | 239 | 1.6 | 8.0 | 0.00 | 0.00 | 0.00 | 66 | 1012.2 |
| 20260905153853 | 30 | 244 | 1.6 | 8.0 | 0.00 | 0.00 | 0.00 | 69 | 1012.2 |
| 20260905152846 | 30 | 163 | 3.2 | 16.1 | 0.00 | 0.00 | 0.00 | 70 | 1012.1 |
| 20260905151840 | 30 | 205 | 4.8 | 16.1 | 0.00 | 0.00 | 0.00 | 71 | 1012.1 |
| 20260905150815 | 30 | 186 | 3.2 | 11.3 | 0.00 | 0.00 | 0.00 | 74 | 1012.2 |
| 20260905145756 | 29 | 226 | 3.2 | 16.1 | 0.00 | 0.00 | 0.00 | 76 | 1012.2 |
| 20260905144820 | 28 | 216 | 3.2 | 16.1 | 0.00 | 0.00 | 0.00 | 78 | 1012.1 |
| 20260905143825 | 28 | 211 | 3.2 | 12.9 | 0.00 | 0.00 | 0.00 | 81 | 1012.0 |
| 20260905141701 | 27 | 178 | 1.6 | 11.3 | 0.00 | 0.00 | 0.00 | 85 | 1012.0 |
| 20260905140654 | 27 | 175 | 3.2 | 9.7 | 0.00 | 0.00 | 0.00 | 86 | 1012.0 |
| 20260905135638 | 26 | 198 | 3.2 | 9.7 | 0.00 | 0.00 | 0.00 | 90 | 1011.8 |
| 20260905133531 | 25 | 181 | 1.6 | 8.0 | 0.00 | 0.00 | 0.00 | 92 | 1011.8 |
| 20260905132458 | 25 | 208 | 1.6 | 8.0 | 0.00 | 0.00 | 0.00 | 92 | 1011.7 |
| 20260905131507 | 25 | 173 | 1.6 | 6.4 | 0.00 | 0.00 | 0.00 | 93 | 1011.5 |
| 20260905130519 | 25 | 196 | 1.6 | 6.4 | 0.00 | 0.00 | 0.00 | 93 | 1011.4 |
| 20260905124436 | 25 | 153 | 1.6 | 6.4 | 0.00 | 0.00 | 0.00 | 94 | 1011.1 |
| 20260905123408 | 24 | 193 | 0.0 | 3.2 | 0.00 | 0.00 | 0.00 | 94 | 1011.1 |
| 20260905121301 | 24 | 196 | 0.0 | 0.0 | 0.00 | 0.00 | 0.00 | 93 | 1011.0 |
| 20260905120237 | 24 | 196 | 0.0 | 0.0 | 0.00 | 0.00 | 0.00 | 93 | 1011.0 |
| 20260905114027 | 24 | 205 | 1.6 | 4.8 | 0.00 | 0.00 | 0.00 | 93 | 1010.7 |
| 20260905113018 | 24 | 191 | 0.0 | 3.2 | 0.00 | 0.00 | 0.00 | 92 | 1010.7 |
| 20260905111949 | 24 | 191 | 0.0 | 3.2 | 0.00 | 0.00 | 0.00 | 92 | 1010.6 |
| 20260905110925 | 24 | 191 | 0.0 | 0.0 | 0.00 | 0.00 | 0.00 | 91 | 1010.6 |
| 20260905105906 | 24 | 191 | 0.0 | 3.2 | 0.00 | 0.00 | 0.00 | 91 | 1010.6 |
| 20260905104856 | 24 | 191 | 0.0 | 3.2 | 0.00 | 0.00 | 0.00 | 91 | 1010.5 |
| 20260905101702 | 25 | 167 | 1.6 | 6.4 | 0.00 | 0.00 | 0.00 | 91 | 1010.3 |
| 20260905095541 | 25 | 198 | 0.0 | 0.0 | 0.00 | 0.00 | 0.00 | 91 | 1010.4 |
| 20260905092253 | 25 | 171 | 3.2 | 11.3 | 0.00 | 0.00 | 0.00 | 90 | 1010.2 |
| 20260905090210 | 25 | 167 | 3.2 | 9.7 | 0.00 | 0.00 | 0.00 | 89 | 1010.3 |
| 20260905085227 | 25 | 165 | 3.2 | 9.7 | 0.00 | 0.00 | 0.00 | 89 | 1010.4 |
| 20260905083106 | 25 | 161 | 4.8 | 16.1 | 0.00 | 0.00 | 0.00 | 88 | 1010.4 |
| 20260905075828 | 25 | 170 | 3.2 | 9.7 | 0.00 | 0.00 | 0.00 | 87 | 1010.7 |
| 20260905073706 | 26 | 196 | 3.2 | 11.3 | 0.00 | 0.00 | 0.00 | 86 | 1010.7 |
| 20260905072637 | 26 | 193 | 4.8 | 11.3 | 0.00 | 0.00 | 0.00 | 85 | 1010.9 |
| 20260905071612 | 26 | 123 | 4.8 | 14.5 | 0.00 | 0.00 | 0.00 | 85 | 1010.9 |
| 20260905070543 | 26 | 109 | 4.8 | 14.5 | 0.00 | 0.00 | 0.00 | 85 | 1011.0 |
| 20260905065600 | 26 | 169 | 4.8 | 12.9 | 0.00 | 0.00 | 0.00 | 85 | 1011.0 |
| 20260905064603 | 26 | 179 | 4.8 | 16.1 | 0.00 | 0.00 | 0.00 | 84 | 1011.0 |
| 20260905063622 | 26 | 169 | 3.2 | 16.1 | 0.00 | 0.00 | 0.00 | 84 | 1011.1 |
| 20260905062632 | 26 | 172 | 4.8 | 11.3 | 0.00 | 0.00 | 0.00 | 83 | 1011.1 |
| 20260905061612 | 26 | 175 | 4.8 | 14.5 | 0.00 | 0.00 | 0.00 | 83 | 1011.0 |
| 20260905060608 | 26 | 166 | 4.8 | 14.5 | 0.00 | 0.00 | 0.00 | 82 | 1011.0 |